Location: Sungai Apap
(2.6167°N, 113.3833°E)
Time: 14:21:42
(UTC+00:00)

NOSS 3-2 (C) - Pass Details

Date: 25 May 2024
Orbit: 712 x 1499 km, 63.4° (Epoch: 28 April)

Event Time Altitude Azimuth Distance (km) Brightness Sun altitude
Exits shadow 21:35:27 - 212° (SSW) 2,496 5.2 -10.2°
Reaches altitude 10° 21:36:09 10° 213° (SSW) 2,217 4.9 -10.1°
Maximum altitude 21:41:02 62° 293° (WNW) 800 2.9 -8.9°
Drops below altitude 10° 21:45:54 10° 14° (NNE) 2,218 5.9 -7.8°
Sets 21:48:21 0° 17° (NNE) 3,189 6.8 -7.2°
